Regional Weather Roundup
Issued by NWS

Home | Current Version | Previous Version | Text Only | Print | Product List | Glossary Off
Versions: 1 2 3 4 5 6 7 8 9 10 11 12 13 14 15 16 17 18 19 20 21 22 23 24 25 26 27 28 29 30 31 32 33 34 35 36 37 38 39 40 41 42 43 44 45 46 47 48 49 50

159
ASUS43 KBIS 200402
RWRND

NORTH DAKOTA REGIONAL WEATHER ROUNDUP
NATIONAL WEATHER SERVICE BISMARCK ND
1000 PM CST FRI JAN 19 2018

NOTE: "FAIR" INDICATES FEW OR NO CLOUDS BELOW 12,000 FEET WITH NO
SIGNIFICANT WEATHER AND/OR OBSTRUCTIONS TO VISIBILITY.


NDZ001>003-009>011-017-200500-
NORTHWEST NORTH DAKOTA

CITY           SKY/WX    TMP DP  RH WIND       PRES   REMARKS
WILLISTON      CLOUDY    32  25  75 SW8       29.69S
MINOT          CLEAR     34  25  69 W14       29.64R
MINOT AFB      CLEAR     30  24  78 W14       29.63R WCI  20
$$

NDZ018>021-031>035-040>046-200500-
SOUTHWEST NORTH DAKOTA

CITY           SKY/WX    TMP DP  RH WIND       PRES   REMARKS
BISMARCK       CLOUDY    36  32  85 SW3       29.72R
DICKINSON      MOCLDY    34  30  85 W12       29.70R
GARRISON         N/A     32  25  75 W9        29.66R
HETTINGER ARPT CLOUDY    34  31  88 W8        29.75R
$$

NDZ004>008-012>016-024-026-027-054-200500-
NORTHEAST NORTH DAKOTA

CITY           SKY/WX    TMP DP  RH WIND       PRES   REMARKS
GRAND FORKS    FAIR      33  29  85 SW10      29.64R
GRND FRKS AFB  FAIR      33  28  83 W8        29.64R
DEVILS LAKE    FAIR      27  24  89 SW10      29.64R WCI  17
$$

NDZ022-023-025-028>030-036>039-047>053-200500-
SOUTHEAST NORTH DAKOTA

CITY           SKY/WX    TMP DP  RH WIND       PRES   REMARKS
FARGO          FAIR      32  28  85 W10       29.67R
JAMESTOWN      CLEAR     32  27  81 W7        29.68R
$$





USA.gov is the U.S. government's official web portal to all federal, state and local government web resources and services.